Content
SEND FEEDBACK

Daily
Averages
Monthly
Summary
United States of America

EL PASO, TEXAS


Home > North America > United States > Texas
Elevation: 3918 feet     Latitude: 31 48N     Longitude: 106 24W

WEATHER
 
SELECT A DAY
Number of Records: 171,933;   Date Range: 1/1/95 - 7/27/14
 
SHARE

PRINT THIS DATA

[ ← Previous Day ]
WEATHER ALMANAC - MARCH 20, 2013
[ Next Day → ]
[ °C ]   °F
Weather ElementAverageHighLow
Temperature59.8 °F71.1 °F (4:51 pm)46 °F (6:51 am)
Dewpoint28 °F32 °F (10:51 am)19 °F (1:51 am)
Humidity31.7 %51 % (7:51 am)19 % (4:51 pm)
Barometer29.96 in30.11 in (7:51 am)29.79 in (10:51 pm)
Wind Speed5.9 mph12.7 mph (12:51 pm)
Wind Gust16.1 mph (11:51 am)
Weather ElementAverage
Visibility10 mi
Wind DirectionE (87 °)

Weather ElementTotal
Precipitation---
Heating Degree Days6.5 (Base 65)
Growing Degree Days8.6 (Base 50)
Averaged from 23 records on March 20, 2013
WEATHER CONDITIONS BREAKOUT
WIND DIRECTION BREAKOUT
WEATHER BY HOUR - MARCH 20, 2013
[ °C ]   °F
Local TimeTemperatureDewpointHumidityBarometerVisibilityWind DirectionWind SpeedGust SpeedPrecipitationEventsConditions
1:51 AM57.0 °F19.0 °F23 %30.00 in10.0 miNE (50°)9.2 mphPartly Cloudy
2:51 AM55.0 °F21.9 °F28 %30.01 in10.0 miENE (70°)5.8 mphPartly Cloudy
3:51 AM51.1 °F27.0 °F39 %30.01 in10.0 miSE (130°)4.6 mphPartly Cloudy
4:51 AM48.9 °F28.9 °F46 %30.02 in10.0 miEast (100°)5.8 mphScattered Clouds
5:51 AM46.9 °F28.9 °F50 %30.05 in10.0 miEast (80°)5.8 mphScattered Clouds
6:51 AM46.0 °F28.0 °F50 %30.09 in10.0 miESE (110°)5.8 mphMostly Cloudy
7:51 AM46.0 °F28.9 °F51 %30.11 in10.0 miEast (80°)5.8 mphMostly Cloudy
8:51 AM51.1 °F30.0 °F44 %30.11 in10.0 miENE (70°)6.9 mphOvercast
9:51 AM55.0 °F30.9 °F40 %30.10 in10.0 miENE (70°)10.4 mphOvercast
10:51 AM59.0 °F32.0 °F36 %30.09 in10.0 miEast (100°)9.2 mphOvercast
11:51 AM61.0 °F30.9 °F32 %30.07 in10.0 miVariable6.9 mph16.1 mphOvercast
12:51 PM64.0 °F32.0 °F30 %30.03 in10.0 miEast (100°)12.7 mphOvercast
1:51 PM66.9 °F28.9 °F24 %29.96 in10.0 miESE (120°)8.1 mph16.1 mphOvercast
2:51 PM70.0 °F27.0 °F20 %29.91 in10.0 miSSE (150°)8.1 mphOvercast
3:51 PM69.1 °F27.0 °F21 %29.88 in10.0 miESE (120°)8.1 mphOvercast
4:51 PM71.1 °F27.0 °F19 %29.86 in10.0 miSouth (180°)5.8 mphOvercast
5:51 PM70.0 °F27.0 °F20 %29.84 in10.0 miSE (140°)3.5 mphOvercast
6:51 PM70.0 °F27.0 °F20 %29.84 in10.0 miCalmMostly Cloudy
7:51 PM66.0 °F27.0 °F23 %29.84 in10.0 miEast (100°)3.5 mphMostly Cloudy
8:51 PM64.9 °F28.0 °F25 %29.82 in10.0 miSE (130°)4.6 mphMostly Cloudy
9:51 PM64.0 °F30.0 °F28 %29.81 in10.0 miCalmOvercast
10:51 PM64.9 °F28.9 °F26 %29.79 in10.0 miCalmOvercast
11:51 PM57.0 °F28.0 °F33 %29.79 in10.0 miEast (100°)4.6 mphMostly Cloudy
Hourly data recorded from KELP, located miles away from El Paso, Texas







STORIES FROM OUR PARTNERS